Weather History for Barking Sands, HI

Change the Weather History Date:

Wednesday, December 14, 2011

  Actual Average Record
Temperature  
Mean Temperature 74 °F -  
Max Temperature 80 °F 82 °F 86 °F (1970)
Min Temperature 69 °F 64 °F 57 °F (1950)
Cooling Degree Days 10    
Growing Degree Days 24 (Base 50)    
Moisture  
Dew Point 67 °F    
Average Humidity 76    
Maximum Humidity 84    
Minimum Humidity 69    
Precipitation  
Precipitation 0.08 in - - ()
Sea Level Pressure  
Sea Level Pressure 30.04 in    
Wind  
Wind Speed 4 mph (East)    
Max Wind Speed 14 mph    
Max Gust Speed 18 mph    
Visibility 10 miles    
Events Rain    
Averages and records for this station are not official NWS values.
T = Trace of Precipitation, MM = Missing Value Source: NWS Daily Summary

Daily Weather History Graph

Daily Weather History Graph

Search for Another Location

Airport:

Trip Planner

Search our weather history database for the weather conditions in past years. The results will help you decide how hot, cold, wet, or windy it might be!

Date:

Astronomy

Dec. 14, 2011 Rise Set
Actual Time 7:09 AM HST 5:57 PM HST
Civil Twilight 6:45 AM HST 6:22 PM HST
Nautical Twilight 6:17 AM HST 6:50 PM HST
Astronomical Twilight 5:50 AM HST 7:17 PM HST
Moon 10:06 PM HST (12/14) 10:21 AM HST (12/14)
Length of Visible Light 11h 36m
Length of Day
10h 48m
Waning Gibbous, 82% of the Moon is Illuminated
Dec 14
Waning Gibbous
Dec 17
Last Quarter
Dec 24
New
Dec 31
First Quarter
Jan 8
Full

Hourly Weather History & Observations

Time (HST) Temp. Heat Index Dew Point Humidity Pressure Visibility Wind Dir Wind Speed Gust Speed Precip Events Conditions
12:56 AM 72.0 °F - 63.0 °F 73% 30.03 in 10.0 mi East 3.5 mph - N/A   Clear
1:56 AM 71.1 °F - 63.0 °F 75% 30.01 in 10.0 mi SSE 3.5 mph - N/A   Clear
2:56 AM 69.1 °F - 62.1 °F 78% 30.00 in 10.0 mi East 4.6 mph - N/A   Clear
3:56 AM 72.0 °F - 63.0 °F 73% 30.01 in 10.0 mi Calm Calm - N/A   Clear
4:56 AM 71.1 °F - 63.0 °F 75% 30.02 in 10.0 mi ENE 3.5 mph - N/A   Scattered Clouds
5:56 AM 70.0 °F - 62.1 °F 76% 30.03 in 10.0 mi ENE 4.6 mph - N/A   Clear
6:56 AM 73.0 °F - 63.0 °F 71% 30.04 in 10.0 mi Calm Calm - N/A   Overcast
7:56 AM 73.9 °F - 66.0 °F 76% 30.06 in 10.0 mi SSE 4.6 mph - N/A   Scattered Clouds
8:56 AM 73.0 °F - 68.0 °F 84% 30.07 in 10.0 mi SSE 5.8 mph - N/A   Mostly Cloudy
9:56 AM 75.9 °F - 66.9 °F 74% 30.09 in 10.0 mi Variable 4.6 mph - N/A   Overcast
10:06 AM 77.0 °F - 66.2 °F 69% 30.08 in 10.0 mi North 9.2 mph - N/A   Overcast
10:56 AM 78.1 °F - 68.0 °F 71% 30.08 in 10.0 mi North 5.8 mph - N/A   Mostly Cloudy
11:10 AM 77.0 °F - 66.2 °F 69% 30.07 in 10.0 mi NNW 6.9 mph - N/A   Overcast
11:56 AM 77.0 °F - 68.0 °F 74% 30.07 in 10.0 mi NNW 4.6 mph - 0.01 in Rain Light Rain
12:27 PM 75.2 °F - 66.2 °F 73% 30.04 in 10.0 mi Calm Calm - 0.02 in Rain Light Rain
12:56 PM 75.9 °F - 69.1 °F 79% 30.04 in 10.0 mi Calm Calm - 0.03 in   Overcast
1:04 PM 75.2 °F - 69.8 °F 83% 30.02 in 10.0 mi Calm Calm - 0.00 in Rain Light Rain
1:44 PM 80.6 °F 83.9 °F 69.8 °F 70% 30.00 in 10.0 mi South 13.8 mph - 0.00 in   Mostly Cloudy
1:56 PM 80.1 °F 83.6 °F 71.1 °F 74% 30.01 in 10.0 mi South 11.5 mph 18.4 mph 0.00 in   Mostly Cloudy
2:56 PM 80.1 °F 82.9 °F 69.1 °F 69% 30.01 in 10.0 mi South 13.8 mph - N/A   Overcast
3:33 PM 78.8 °F - 68.0 °F 69% 30.00 in 10.0 mi South 12.7 mph - N/A   Overcast
3:56 PM 79.0 °F - 70.0 °F 74% 30.00 in 10.0 mi South 9.2 mph 17.3 mph 0.03 in Rain Light Rain
4:56 PM 78.1 °F - 69.1 °F 74% 30.01 in 10.0 mi ENE 4.6 mph - 0.01 in   Mostly Cloudy
5:56 PM 75.9 °F - 68.0 °F 76% 30.02 in 10.0 mi NNE 8.1 mph - N/A   Clear
6:56 PM 73.9 °F - 68.0 °F 82% 30.04 in 10.0 mi NE 5.8 mph - N/A   Partly Cloudy
7:43 PM 75.2 °F - 68.0 °F 78% 30.05 in 10.0 mi Calm Calm - N/A   Mostly Cloudy
7:56 PM 75.0 °F - 68.0 °F 79% 30.06 in 10.0 mi Calm Calm - N/A   Scattered Clouds
8:04 PM 75.2 °F - 68.0 °F 78% 30.05 in 10.0 mi Calm Calm - N/A   Mostly Cloudy
8:11 PM 73.4 °F - 68.0 °F 83% 30.05 in 10.0 mi Calm Calm - N/A   Scattered Clouds
8:56 PM 73.0 °F - 66.0 °F 79% 30.07 in 10.0 mi ENE 3.5 mph - N/A   Scattered Clouds
9:56 PM 73.0 °F - 66.0 °F 79% 30.07 in 10.0 mi SE 4.6 mph - N/A   Clear
10:56 PM 71.1 °F - 64.9 °F 81% 30.07 in 10.0 mi Calm Calm - N/A   Clear
11:56 PM 70.0 °F - 63.0 °F 78% 30.06 in 10.0 mi East 3.5 mph - N/A   Clear